Погода в Лучистом

Россия / Республика Крым     44°44′14″N   34°24′00″E
темп.,
°C
ветер,
м/с
пор.,
м/с
влажн.,
%
обл.,
%
осадки,
мм/ч
давл.,
гПа
погр.,
м
13 июня, вс
вс1300:00+17сз43782 0.0 101342
03:00+16ссз33733 0.0 101337
06:00+17ссз22742 0.0 101227
09:00+19ююв22695 0.0 1012327
12:00+19ю347032 0.1 1012692
15:00+19ю457612 0.6 1012532
18:00+19ю448276 0.5 1011290
21:00+17ю349137 0.6 1011197
14 июня, пн
пн1400:00+17ю248938 0.0 1011326
03:00+16юв11859 0.0 1010154
06:00+16ююв248640 0.0 1010443
09:00+17юв248195 0.0 1010516
12:00+18юв337872 0.3 1012478
15:00+17вюв1272100 0.4 1011300
18:00+18всв12680 0.0 1010298
21:00+18с22655 0.0 101021
15 июня, вт
вт1500:00+17ссз3366100 0.8 101033
03:00+17с4485100 3.7 100884
06:00+17ссв2383100 4.9 100889
09:00+18в3781100 8.4 1008313
12:00+19ююв227738 2.1 1008379
15:00+19ююв33710 2.2 1007468
18:00+18ю448131 0.0 1008333
21:00+16юз358464 0.0 1009197
16 июня, ср
ср1600:00+15юз3480100 0.0 1009224
03:00+15ююз2380100 0.0 1009270
06:00+15юв1285100 0.2 1009237
09:00+17вюв327768 0.3 1009500
12:00+16ююв228252 1.1 1011399
15:00+17ююв227316 1.4 1011531
18:00+17ююв117218 0.2 1011447
21:00+16юз017814 0.3 101272
17 июня, чт
чт1700:00+15сз217760 0.0 101177
03:00+16с0172100 0.0 1011108
06:00+16в117884 0.1 1011175
09:00+17св1172100 0.5 1012249
12:00+18в2274100 1.3 1012402
15:00+17ссз2382100 2.8 1013237
18:00+18с128293 1.7 1014169
21:00+17сз338637 2.6 1014156